Preview of NWS' New Version of Forecast
This preview is not operational and should not be used for support decisions.

Terminal Aerodrome Forecast (TAF)

Issued by National Weather Service (NWS)

                            
000
FTUS42 KKEY 152326
TAFEYW
TAF
KEYW 152326Z 1600/1624 10014G20KT P6SM VCSH SCT025=